Time,TemperatureF,DewpointF,PressureIn,WindDirection,WindDirectionDegrees,WindSpeedMPH,WindSpeedGustMPH,Humidity,HourlyPrecipIn,Conditions,Clouds,dailyrainin,SoftwareType,DateUTC
2013-02-07 00:04:00,26.4,10.3,30.31,South,180,0.0,-999.0,50,-99.99,,,0.00,Acu-Link.com,2013-02-07 05:04:00,
2013-02-07 00:19:00,25.9,11.1,30.31,SSW,202,0.0,-999.0,53,-99.99,,,0.00,Acu-Link.com,2013-02-07 05:19:00,
2013-02-07 00:34:00,25.0,12.3,30.32,SSW,202,0.0,-999.0,58,-99.99,,,0.00,Acu-Link.com,2013-02-07 05:34:00,
2013-02-07 00:49:00,24.1,13.3,30.32,SSW,202,0.0,-999.0,63,-99.99,,,0.00,Acu-Link.com,2013-02-07 05:49:00,
2013-02-07 01:04:00,23.5,13.2,30.33,SSW,202,0.0,-999.0,64,-99.99,,,0.00,Acu-Link.com,2013-02-07 06:04:00,
2013-02-07 01:19:00,23.0,13.0,30.33,SSW,202,0.0,-999.0,65,-99.99,,,0.00,Acu-Link.com,2013-02-07 06:19:00,
2013-02-07 01:35:00,22.6,14.4,30.33,SSW,202,0.0,-999.0,70,-99.99,,,0.00,Acu-Link.com,2013-02-07 06:35:00,
2013-02-07 01:50:00,22.6,15.3,30.34,SW,225,0.0,-999.0,73,-99.99,,,0.00,Acu-Link.com,2013-02-07 06:50:00,
2013-02-07 02:05:00,22.6,17.1,30.35,SW,225,0.0,-999.0,79,-99.99,,,0.00,Acu-Link.com,2013-02-07 07:05:00,
2013-02-07 02:20:00,22.3,17.6,30.35,SW,225,0.0,-999.0,82,-99.99,,,0.00,Acu-Link.com,2013-02-07 07:20:00,
2013-02-07 02:35:00,21.9,17.8,30.35,SW,225,0.0,-999.0,84,-99.99,,,0.00,Acu-Link.com,2013-02-07 07:35:00,
2013-02-07 02:50:00,21.4,17.3,30.34,SW,225,0.0,-999.0,84,-99.99,,,0.00,Acu-Link.com,2013-02-07 07:50:00,
2013-02-07 03:05:00,20.8,20.1,30.34,SW,225,0.0,-999.0,97,-99.99,,,0.00,Acu-Link.com,2013-02-07 08:05:00,
2013-02-07 03:21:00,20.7,19.2,30.36,SW,225,0.0,-999.0,94,-99.99,,,0.00,Acu-Link.com,2013-02-07 08:21:00,
2013-02-07 03:36:00,20.3,19.1,30.36,SW,225,0.0,-999.0,95,-99.99,,,0.00,Acu-Link.com,2013-02-07 08:36:00,
2013-02-07 03:51:00,20.1,19.6,30.36,SW,225,0.0,-999.0,98,-99.99,,,0.00,Acu-Link.com,2013-02-07 08:51:00,
2013-02-07 04:06:00,19.9,19.5,30.37,SW,225,0.0,-999.0,98,-99.99,,,0.00,Acu-Link.com,2013-02-07 09:06:00,
2013-02-07 04:21:00,19.8,19.3,30.37,SW,225,0.0,-999.0,98,-99.99,,,0.00,Acu-Link.com,2013-02-07 09:21:00,
2013-02-07 04:37:00,19.8,19.3,30.37,SW,225,0.0,-999.0,98,-99.99,,,0.00,Acu-Link.com,2013-02-07 09:37:00,
2013-02-07 04:52:00,19.4,18.9,30.39,SW,225,0.0,-999.0,98,-99.99,,,0.00,Acu-Link.com,2013-02-07 09:52:00,
2013-02-07 05:07:00,19.4,18.9,30.40,SW,225,0.0,-999.0,98,-99.99,,,0.00,Acu-Link.com,2013-02-07 10:07:00,
2013-02-07 05:22:00,19.2,18.7,30.39,SW,225,0.0,-999.0,98,-99.99,,,0.00,Acu-Link.com,2013-02-07 10:22:00,
2013-02-07 05:37:00,19.0,18.6,30.40,SW,225,0.0,-999.0,98,-99.99,,,0.00,Acu-Link.com,2013-02-07 10:37:00,
2013-02-07 05:52:00,18.9,18.4,30.40,SW,225,0.0,-999.0,98,-99.99,,,0.00,Acu-Link.com,2013-02-07 10:52:00,
2013-02-07 06:07:00,18.7,18.2,30.40,SW,225,0.0,-999.0,98,-99.99,,,0.00,Acu-Link.com,2013-02-07 11:07:00,
2013-02-07 06:22:00,18.9,18.4,30.40,SW,225,0.0,-999.0,98,-99.99,,,0.00,Acu-Link.com,2013-02-07 11:22:00,
2013-02-07 06:37:00,19.4,18.9,30.40,SW,225,0.0,-999.0,98,-99.99,,,0.00,Acu-Link.com,2013-02-07 11:37:00,
2013-02-07 06:53:00,19.9,18.0,30.42,SSW,202,0.0,-999.0,92,-99.99,,,0.00,Acu-Link.com,2013-02-07 11:53:00,
2013-02-07 07:08:00,20.1,19.4,30.43,SSW,202,0.0,-999.0,97,-99.99,,,0.00,Acu-Link.com,2013-02-07 12:08:00,
2013-02-07 07:23:00,20.7,20.2,30.44,SSW,202,0.0,-999.0,98,-99.99,,,0.00,Acu-Link.com,2013-02-07 12:23:00,
2013-02-07 07:38:00,20.7,20.2,30.44,SSW,202,0.0,-999.0,98,-99.99,,,0.00,Acu-Link.com,2013-02-07 12:38:00,
2013-02-07 07:53:00,21.9,21.4,30.46,SSW,202,0.0,-999.0,98,-99.99,,,0.00,Acu-Link.com,2013-02-07 12:53:00,
2013-02-07 08:08:00,22.6,20.2,30.47,SSW,202,0.0,-999.0,90,-99.99,,,0.00,Acu-Link.com,2013-02-07 13:08:00,
2013-02-07 08:24:00,23.5,17.4,30.47,ESE,112,0.0,-999.0,77,-99.99,,,0.00,Acu-Link.com,2013-02-07 13:24:00,
2013-02-07 08:39:00,24.4,16.1,30.47,SSW,202,0.0,-999.0,70,-99.99,,,0.00,Acu-Link.com,2013-02-07 13:39:00,
2013-02-07 08:54:00,25.2,14.7,30.47,NE,45,0.0,-999.0,64,-99.99,,,0.00,Acu-Link.com,2013-02-07 13:54:00,
2013-02-07 09:09:00,25.7,14.9,30.46,South,180,0.0,-999.0,63,-99.99,,,0.00,Acu-Link.com,2013-02-07 14:09:00,
2013-02-07 09:24:00,26.4,15.2,30.46,SSW,202,0.0,-999.0,62,-99.99,,,0.00,Acu-Link.com,2013-02-07 14:24:00,
2013-02-07 09:39:00,27.1,15.5,30.46,SSW,202,0.0,-999.0,61,-99.99,,,0.00,Acu-Link.com,2013-02-07 14:39:00,
2013-02-07 09:55:00,28.2,15.8,30.46,ENE,67,0.0,-999.0,59,-99.99,,,0.00,Acu-Link.com,2013-02-07 14:55:00,
2013-02-07 10:10:00,28.6,16.5,30.47,ESE,112,0.0,-999.0,60,-99.99,,,0.00,Acu-Link.com,2013-02-07 15:10:00,
2013-02-07 10:25:00,28.8,17.0,30.48,SSE,157,3.8,-999.0,61,-99.99,,,0.00,Acu-Link.com,2013-02-07 15:25:00,
2013-02-07 10:40:00,29.5,16.9,30.48,SSW,202,0.0,-999.0,59,-99.99,,,0.00,Acu-Link.com,2013-02-07 15:40:00,
2013-02-07 10:55:00,30.2,18.0,30.48,SE,135,0.0,-999.0,60,-99.99,,,0.00,Acu-Link.com,2013-02-07 15:55:00,
2013-02-07 11:11:00,30.6,18.0,30.47,SSW,202,0.0,-999.0,59,-99.99,,,0.00,Acu-Link.com,2013-02-07 16:11:00,
2013-02-07 11:26:00,30.0,16.2,30.46,South,180,0.0,-999.0,56,-99.99,,,0.00,Acu-Link.com,2013-02-07 16:26:00,
2013-02-07 11:41:00,30.4,17.0,30.45,South,180,1.1,-999.0,57,-99.99,,,0.00,Acu-Link.com,2013-02-07 16:41:00,
2013-02-07 11:56:00,30.4,16.6,30.45,ESE,112,0.0,-999.0,56,-99.99,,,0.00,Acu-Link.com,2013-02-07 16:56:00,
2013-02-07 12:11:00,30.6,17.2,30.45,South,180,2.7,-999.0,57,-99.99,,,0.00,Acu-Link.com,2013-02-07 17:11:00,
2013-02-07 12:27:00,30.2,17.2,30.45,SSE,157,0.0,-999.0,58,-99.99,,,0.00,Acu-Link.com,2013-02-07 17:27:00,
2013-02-07 12:42:00,30.6,17.2,30.44,West,270,0.0,-999.0,57,-99.99,,,0.00,Acu-Link.com,2013-02-07 17:42:00,
2013-02-07 12:57:00,30.9,17.9,30.44,East,90,0.0,-999.0,58,-99.99,,,0.00,Acu-Link.com,2013-02-07 17:57:00,
2013-02-07 13:12:00,31.6,19.0,30.43,SSE,157,0.0,-999.0,59,-99.99,,,0.00,Acu-Link.com,2013-02-07 18:12:00,
2013-02-07 13:27:00,31.8,17.9,30.43,South,180,0.0,-999.0,56,-99.99,,,0.00,Acu-Link.com,2013-02-07 18:27:00,
2013-02-07 13:43:00,31.8,17.9,30.42,NNW,337,0.0,-999.0,56,-99.99,,,0.00,Acu-Link.com,2013-02-07 18:43:00,
2013-02-07 13:58:00,33.1,19.5,30.42,South,180,0.0,-999.0,57,-99.99,,,0.00,Acu-Link.com,2013-02-07 18:58:00,
2013-02-07 14:13:00,33.1,18.7,30.41,ESE,112,0.0,-999.0,55,-99.99,,,0.00,Acu-Link.com,2013-02-07 19:13:00,
2013-02-07 14:28:00,33.8,18.9,30.40,ESE,112,0.0,-999.0,54,-99.99,,,0.00,Acu-Link.com,2013-02-07 19:28:00,
2013-02-07 14:44:00,32.4,17.6,30.40,West,270,0.0,-999.0,54,-99.99,,,0.00,Acu-Link.com,2013-02-07 19:44:00,
2013-02-07 14:59:00,32.9,18.1,30.41,SSW,202,0.0,-999.0,54,-99.99,,,0.00,Acu-Link.com,2013-02-07 19:59:00,
2013-02-07 15:14:00,32.9,18.1,30.40,WSW,247,0.0,-999.0,54,-99.99,,,0.00,Acu-Link.com,2013-02-07 20:14:00,
2013-02-07 15:29:00,33.1,19.1,30.40,South,180,0.0,-999.0,56,-99.99,,,0.00,Acu-Link.com,2013-02-07 20:29:00,
2013-02-07 15:44:00,32.5,19.0,30.39,South,180,0.0,-999.0,57,-99.99,,,0.00,Acu-Link.com,2013-02-07 20:44:00,
2013-02-07 15:59:00,32.4,19.3,30.39,SSW,202,0.0,-999.0,58,-99.99,,,0.00,Acu-Link.com,2013-02-07 20:59:00,
2013-02-07 16:15:00,31.8,17.5,30.38,ESE,112,0.0,-999.0,55,-99.99,,,0.00,Acu-Link.com,2013-02-07 21:15:00,
2013-02-07 16:30:00,31.6,17.3,30.38,South,180,0.0,-999.0,55,-99.99,,,0.00,Acu-Link.com,2013-02-07 21:30:00,
2013-02-07 16:45:00,31.3,17.0,30.37,SSE,157,0.0,-999.0,55,-99.99,,,0.00,Acu-Link.com,2013-02-07 21:45:00,
2013-02-07 17:00:00,30.9,17.5,30.37,South,180,0.0,-999.0,57,-99.99,,,0.00,Acu-Link.com,2013-02-07 22:00:00,
2013-02-07 17:15:00,30.6,17.6,30.37,South,180,0.0,-999.0,58,-99.99,,,0.00,Acu-Link.com,2013-02-07 22:15:00,
2013-02-07 17:30:00,29.5,16.5,30.37,South,180,0.0,-999.0,58,-99.99,,,0.00,Acu-Link.com,2013-02-07 22:30:00,
2013-02-07 17:46:00,28.6,16.9,30.38,SSE,157,0.0,-999.0,61,-99.99,,,0.00,Acu-Link.com,2013-02-07 22:46:00,
2013-02-07 18:01:00,28.0,16.7,30.38,SW,225,0.0,-999.0,62,-99.99,,,0.00,Acu-Link.com,2013-02-07 23:01:00,
2013-02-07 18:16:00,27.5,16.9,30.38,SW,225,0.0,-999.0,64,-99.99,,,0.00,Acu-Link.com,2013-02-07 23:16:00,
2013-02-07 18:31:00,26.8,17.3,30.38,SSE,157,0.0,-999.0,67,-99.99,,,0.00,Acu-Link.com,2013-02-07 23:31:00,
2013-02-07 18:47:00,26.6,17.1,30.38,SW,225,0.0,-999.0,67,-99.99,,,0.00,Acu-Link.com,2013-02-07 23:47:00,
2013-02-07 19:02:00,26.4,18.0,30.39,SW,225,0.0,-999.0,70,-99.99,,,0.00,Acu-Link.com,2013-02-08 00:02:00,
2013-02-07 19:17:00,26.1,17.6,30.40,SSW,202,0.0,-999.0,70,-99.99,,,0.00,Acu-Link.com,2013-02-08 00:17:00,
2013-02-07 19:32:00,25.9,18.4,30.40,SSW,202,0.0,-999.0,73,-99.99,,,0.00,Acu-Link.com,2013-02-08 00:32:00,
2013-02-07 19:47:00,25.5,19.0,30.39,SSW,202,0.0,-999.0,76,-99.99,,,0.00,Acu-Link.com,2013-02-08 00:47:00,
2013-02-07 20:03:00,25.3,19.2,30.39,SSW,202,0.0,-999.0,77,-99.99,,,0.00,Acu-Link.com,2013-02-08 01:03:00,
2013-02-07 20:18:00,25.2,20.2,30.38,SSW,202,0.0,-999.0,81,-99.99,,,0.00,Acu-Link.com,2013-02-08 01:18:00,
2013-02-07 20:33:00,25.0,21.7,30.38,SSW,202,0.0,-999.0,87,-99.99,,,0.00,Acu-Link.com,2013-02-08 01:33:00,
2013-02-07 20:48:00,24.8,22.6,30.38,SSW,202,0.0,-999.0,91,-99.99,,,0.00,Acu-Link.com,2013-02-08 01:48:00,
2013-02-07 21:03:00,25.0,23.0,30.38,ESE,112,0.0,-999.0,92,-99.99,,,0.00,Acu-Link.com,2013-02-08 02:03:00,
2013-02-07 21:19:00,25.0,23.8,30.37,SSW,202,0.0,-999.0,95,-99.99,,,0.00,Acu-Link.com,2013-02-08 02:19:00,
2013-02-07 21:34:00,25.3,23.6,30.37,SE,135,0.0,-999.0,93,-99.99,,,0.00,Acu-Link.com,2013-02-08 02:34:00,
2013-02-07 21:49:00,25.9,24.4,30.37,SE,135,0.0,-999.0,94,-99.99,,,0.00,Acu-Link.com,2013-02-08 02:49:00,
2013-02-07 22:04:00,26.1,24.8,30.36,SE,135,0.0,-999.0,95,-99.99,,,0.00,Acu-Link.com,2013-02-08 03:04:00,
2013-02-07 22:19:00,26.6,25.4,30.35,East,90,0.0,-999.0,95,-99.99,,,0.00,Acu-Link.com,2013-02-08 03:19:00,
2013-02-07 22:34:00,27.3,26.3,30.35,South,180,0.0,-999.0,96,-99.99,,,0.00,Acu-Link.com,2013-02-08 03:34:00,
2013-02-07 22:50:00,27.9,27.4,30.34,SSW,202,0.0,-999.0,98,-99.99,,,0.00,Acu-Link.com,2013-02-08 03:50:00,
2013-02-07 23:05:00,28.0,27.5,30.33,South,180,0.0,-999.0,98,-99.99,,,0.00,Acu-Link.com,2013-02-08 04:05:00,
2013-02-07 23:20:00,28.4,27.9,30.32,SW,225,3.1,-999.0,98,-99.99,,,0.00,Acu-Link.com,2013-02-08 04:20:00,
2013-02-07 23:35:00,28.8,28.3,30.31,SSE,157,0.0,-999.0,98,-99.99,,,0.00,Acu-Link.com,2013-02-08 04:35:00,
2013-02-07 23:51:00,28.9,28.4,30.31,SSW,202,0.0,-999.0,98,-99.99,,,0.00,Acu-Link.com,2013-02-08 04:51:00,